| time (UTC) | temp F | wind direction | speed MPH | gust MPH | rain 1hr in | rain 24hr in | rain mn in | humidity % | barometer mb |
| 20260506110002 | 52 | 360 | 9.0 | 0.0 | 0.00 | 0.00 | 0.00 | 91 | 1000.4 |
| 20260506104503 | 52 | 360 | 9.0 | 0.0 | 0.00 | 0.00 | 0.00 | 92 | 1000.1 |
| 20260506103002 | 52 | 10 | 8.0 | 0.0 | 0.00 | 0.00 | 0.00 | 92 | 1000.1 |
| 20260506101502 | 52 | 10 | 8.0 | 0.0 | 0.00 | 0.00 | 0.00 | 93 | 999.9 |
| 20260506100002 | 52 | 360 | 8.0 | 0.0 | 0.00 | 0.00 | 0.00 | 93 | 999.9 |
| 20260506094502 | 51 | 360 | 7.0 | 0.0 | 0.00 | 0.00 | 0.00 | 94 | 999.6 |
| 20260506093002 | 51 | 360 | 7.0 | 0.0 | 0.00 | 0.00 | 0.00 | 94 | 999.6 |
| 20260506091502 | 52 | 10 | 7.0 | 0.0 | 0.00 | 0.00 | 0.00 | 96 | 999.4 |
| 20260506090003 | 52 | 10 | 7.0 | 0.0 | 0.00 | 0.00 | 0.00 | 96 | 999.4 |
| 20260506084502 | 51 | 20 | 8.0 | 0.0 | 0.00 | 0.00 | 0.00 | 96 | 999.2 |
| 20260506083003 | 51 | 20 | 8.0 | 0.0 | 0.00 | 0.00 | 0.00 | 96 | 999.2 |
| 20260506081502 | 51 | 30 | 6.0 | 0.0 | 0.00 | 0.00 | 0.00 | 97 | 999.1 |
| 20260506073002 | 51 | 40 | 8.0 | 0.0 | 0.00 | 0.00 | 0.00 | 97 | 999.0 |
| 20260506071502 | 51 | 40 | 8.0 | 0.0 | 0.00 | 0.00 | 0.00 | 94 | 998.8 |
| 20260506061502 | 51 | 40 | 8.0 | 0.0 | 0.00 | 0.00 | 0.00 | 95 | 998.9 |
| 20260506044502 | 51 | 40 | 7.0 | 0.0 | 0.00 | 0.00 | 0.00 | 96 | 999.5 |
| 20260506043002 | 51 | 30 | 6.0 | 0.0 | 0.00 | 0.00 | 0.00 | 96 | 999.5 |
| 20260506041502 | 51 | 30 | 6.0 | 0.0 | 0.00 | 0.00 | 0.00 | 97 | 999.8 |
| 20260506040002 | 51 | 30 | 6.0 | 0.0 | 0.00 | 0.00 | 0.00 | 97 | 999.8 |
| 20260506034502 | 51 | 10 | 6.0 | 0.0 | 0.00 | 0.00 | 0.00 | 96 | 1000.0 |
| 20260506033002 | 51 | 10 | 6.0 | 0.0 | 0.00 | 0.00 | 0.00 | 96 | 1000.0 |
| 20260506031502 | 52 | 30 | 6.0 | 0.0 | 0.00 | 0.00 | 0.00 | 96 | 1000.3 |
| 20260506030003 | 52 | 30 | 6.0 | 0.0 | 0.00 | 0.00 | 0.00 | 96 | 1000.3 |
| 20260505204502 | 57 | 40 | 11.0 | 0.0 | 0.00 | 0.00 | 0.00 | 83 | 1002.1 |
| 20260505203002 | 57 | 40 | 11.0 | 0.0 | 0.00 | 0.00 | 0.00 | 83 | 1002.1 |
| 20260505201502 | 58 | 40 | 11.0 | 0.0 | 0.00 | 0.00 | 0.00 | 81 | 1002.2 |
| 20260505200002 | 58 | 40 | 10.0 | 0.0 | 0.00 | 0.00 | 0.00 | 81 | 1002.2 |
| 20260505194502 | 59 | 40 | 9.0 | 0.0 | 0.00 | 0.00 | 0.00 | 79 | 1002.0 |
| 20260505193003 | 59 | 40 | 9.0 | 0.0 | 0.00 | 0.00 | 0.00 | 79 | 1002.0 |
| 20260505191502 | 60 | 40 | 9.0 | 0.0 | 0.00 | 0.00 | 0.00 | 78 | 1001.8 |
| 20260505190003 | 60 | 60 | 10.0 | 0.0 | 0.00 | 0.00 | 0.00 | 78 | 1001.8 |
| 20260505184502 | 62 | 60 | 10.0 | 0.0 | 0.00 | 0.00 | 0.00 | 74 | 1001.9 |
| 20260505183002 | 62 | 40 | 8.0 | 0.0 | 0.00 | 0.00 | 0.00 | 74 | 1001.9 |
| 20260505181502 | 62 | 40 | 8.0 | 0.0 | 0.00 | 0.00 | 0.00 | 74 | 1001.9 |
| 20260505180002 | 62 | 50 | 8.0 | 0.0 | 0.00 | 0.00 | 0.00 | 74 | 1001.9 |
| 20260505174502 | 63 | 50 | 8.0 | 0.0 | 0.00 | 0.00 | 0.00 | 72 | 1002.0 |
| 20260505173002 | 63 | 30 | 7.0 | 0.0 | 0.00 | 0.00 | 0.00 | 72 | 1002.0 |
| 20260505171502 | 64 | 30 | 7.0 | 0.0 | 0.00 | 0.00 | 0.00 | 70 | 1002.1 |
| 20260505170002 | 64 | 20 | 6.0 | 0.0 | 0.00 | 0.00 | 0.00 | 70 | 1002.1 |
| 20260505164502 | 64 | 360 | 8.0 | 0.0 | 0.00 | 0.00 | 0.00 | 70 | 1002.3 |
| 20260505163002 | 64 | 360 | 8.0 | 0.0 | 0.00 | 0.00 | 0.00 | 70 | 1002.3 |
| 20260505161502 | 64 | 360 | 8.0 | 0.0 | 0.00 | 0.00 | 0.00 | 69 | 1002.4 |
| 20260505153002 | 65 | 360 | 8.0 | 0.0 | 0.00 | 0.00 | 0.00 | 68 | 1002.4 |
| 20260505151502 | 67 | 330 | 4.0 | 0.0 | 0.00 | 0.00 | 0.00 | 60 | 1002.4 |
| 20260505124502 | 64 | 360 | 3.0 | 0.0 | 0.00 | 0.00 | 0.00 | 69 | 1003.3 |
| 20260505123002 | 64 | 60 | 3.0 | 0.0 | 0.00 | 0.00 | 0.00 | 69 | 1003.3 |
| 20260505121502 | 64 | 60 | 3.0 | 0.0 | 0.00 | 0.00 | 0.00 | 69 | 1003.6 |
| 20260505120002 | 64 | 100 | 1.0 | 0.0 | 0.00 | 0.00 | 0.00 | 69 | 1003.6 |
| 20260505114502 | 63 | 330 | 2.0 | 0.0 | 0.00 | 0.00 | 0.00 | 70 | 1003.8 |
| 20260505113002 | 63 | 330 | 2.0 | 0.0 | 0.00 | 0.00 | 0.00 | 70 | 1003.8 |
| 20260505111502 | 63 | 330 | 1.0 | 0.0 | 0.00 | 0.00 | 0.00 | 75 | 1003.9 |